Time,TemperatureF,DewpointF,PressureIn,WindDirection,WindDirectionDegrees,WindSpeedMPH,WindSpeedGustMPH,Humidity,HourlyPrecipIn,Conditions,Clouds,dailyrainin,SoftwareType,DateUTC
2013-05-18 00:02:00,-999.0,-99.9,30.20,North,-999,-999.0,-999.0,-999,-99.99,,,0.00,weatherlink.com 1.10,2013-05-18 04:02:00,
2013-05-18 00:17:00,-999.0,-99.9,30.20,North,-999,-999.0,-999.0,-999,-99.99,,,0.00,weatherlink.com 1.10,2013-05-18 04:17:00,
2013-05-18 00:32:00,-999.0,-99.9,30.20,North,-999,-999.0,-999.0,-999,-99.99,,,0.00,weatherlink.com 1.10,2013-05-18 04:32:00,
2013-05-18 00:47:00,-999.0,-99.9,30.20,North,-999,-999.0,-999.0,-999,-99.99,,,0.00,weatherlink.com 1.10,2013-05-18 04:47:00,
2013-05-18 01:02:00,-999.0,-99.9,30.20,North,-999,-999.0,-999.0,-999,-99.99,,,0.00,weatherlink.com 1.10,2013-05-18 05:02:00,
2013-05-18 01:17:00,-999.0,-99.9,30.20,North,-999,-999.0,-999.0,-999,-99.99,,,0.00,weatherlink.com 1.10,2013-05-18 05:17:00,
2013-05-18 01:32:00,-999.0,-99.9,30.21,North,-999,-999.0,-999.0,-999,-99.99,,,0.00,weatherlink.com 1.10,2013-05-18 05:32:00,
2013-05-18 01:47:00,-999.0,-99.9,30.20,North,-999,-999.0,-999.0,-999,-99.99,,,0.00,weatherlink.com 1.10,2013-05-18 05:47:00,
2013-05-18 02:02:00,-999.0,-99.9,30.20,North,-999,-999.0,-999.0,-999,-99.99,,,0.00,weatherlink.com 1.10,2013-05-18 06:02:00,
2013-05-18 02:17:00,-999.0,-99.9,30.20,North,-999,-999.0,-999.0,-999,-99.99,,,0.00,weatherlink.com 1.10,2013-05-18 06:17:00,
2013-05-18 02:32:00,-999.0,-99.9,30.20,North,-999,-999.0,-999.0,-999,-99.99,,,0.00,weatherlink.com 1.10,2013-05-18 06:32:00,
2013-05-18 02:47:00,-999.0,-99.9,30.20,North,-999,-999.0,-999.0,-999,-99.99,,,0.00,weatherlink.com 1.10,2013-05-18 06:47:00,
2013-05-18 03:02:00,-999.0,-99.9,30.20,North,-999,-999.0,-999.0,-999,-99.99,,,0.00,weatherlink.com 1.10,2013-05-18 07:02:00,
2013-05-18 03:17:00,-999.0,-99.9,30.21,North,-999,-999.0,-999.0,-999,-99.99,,,0.00,weatherlink.com 1.10,2013-05-18 07:17:00,
2013-05-18 03:32:00,-999.0,-99.9,30.21,North,-999,-999.0,-999.0,-999,-99.99,,,0.00,weatherlink.com 1.10,2013-05-18 07:32:00,
2013-05-18 03:47:00,-999.0,-99.9,30.21,North,-999,-999.0,-999.0,-999,-99.99,,,0.00,weatherlink.com 1.10,2013-05-18 07:47:00,
2013-05-18 04:02:00,-999.0,-99.9,30.21,North,-999,-999.0,-999.0,-999,-99.99,,,0.00,weatherlink.com 1.10,2013-05-18 08:02:00,
2013-05-18 04:17:00,-999.0,-99.9,30.21,North,-999,-999.0,-999.0,-999,-99.99,,,0.00,weatherlink.com 1.10,2013-05-18 08:17:00,
2013-05-18 04:32:00,-999.0,-99.9,30.21,North,-999,-999.0,-999.0,-999,-99.99,,,0.00,weatherlink.com 1.10,2013-05-18 08:32:00,
2013-05-18 04:47:00,-999.0,-99.9,30.21,North,-999,-999.0,-999.0,-999,-99.99,,,0.00,weatherlink.com 1.10,2013-05-18 08:47:00,
2013-05-18 05:02:00,-999.0,-99.9,30.20,North,-999,-999.0,-999.0,-999,-99.99,,,0.00,weatherlink.com 1.10,2013-05-18 09:02:00,
2013-05-18 05:17:00,-999.0,-99.9,30.21,North,-999,-999.0,-999.0,-999,-99.99,,,0.00,weatherlink.com 1.10,2013-05-18 09:17:00,
2013-05-18 05:32:00,-999.0,-99.9,30.21,North,-999,-999.0,-999.0,-999,-99.99,,,0.00,weatherlink.com 1.10,2013-05-18 09:32:00,
2013-05-18 05:47:00,-999.0,-99.9,30.21,North,-999,-999.0,-999.0,-999,-99.99,,,0.00,weatherlink.com 1.10,2013-05-18 09:47:00,
2013-05-18 06:02:00,-999.0,-99.9,30.21,North,-999,-999.0,-999.0,-999,-99.99,,,0.00,weatherlink.com 1.10,2013-05-18 10:02:00,
2013-05-18 06:17:00,-999.0,-99.9,30.22,North,-999,-999.0,-999.0,-999,-99.99,,,0.00,weatherlink.com 1.10,2013-05-18 10:17:00,
2013-05-18 06:32:00,-999.0,-99.9,30.23,North,-999,-999.0,-999.0,-999,-99.99,,,0.00,weatherlink.com 1.10,2013-05-18 10:32:00,
2013-05-18 06:47:00,-999.0,-99.9,30.23,North,-999,-999.0,-999.0,-999,-99.99,,,0.00,weatherlink.com 1.10,2013-05-18 10:47:00,
2013-05-18 07:02:00,-999.0,-99.9,30.23,North,-999,-999.0,-999.0,-999,-99.99,,,0.00,weatherlink.com 1.10,2013-05-18 11:02:00,
2013-05-18 07:17:00,-999.0,-99.9,30.23,North,-999,-999.0,-999.0,-999,-99.99,,,0.00,weatherlink.com 1.10,2013-05-18 11:17:00,
2013-05-18 07:32:00,-999.0,-99.9,30.23,North,-999,-999.0,-999.0,-999,-99.99,,,0.00,weatherlink.com 1.10,2013-05-18 11:32:00,
2013-05-18 07:47:00,-999.0,-99.9,30.23,North,-999,-999.0,-999.0,-999,-99.99,,,0.00,weatherlink.com 1.10,2013-05-18 11:47:00,
2013-05-18 08:02:00,-999.0,-99.9,30.24,North,-999,-999.0,-999.0,-999,-99.99,,,0.00,weatherlink.com 1.10,2013-05-18 12:02:00,
2013-05-18 08:17:00,-999.0,-99.9,30.24,North,-999,-999.0,-999.0,-999,-99.99,,,0.00,weatherlink.com 1.10,2013-05-18 12:17:00,
2013-05-18 08:32:00,-999.0,-99.9,30.24,North,-999,-999.0,-999.0,-999,-99.99,,,0.00,weatherlink.com 1.10,2013-05-18 12:32:00,
2013-05-18 08:47:00,-999.0,-99.9,30.23,North,-999,-999.0,-999.0,-999,-99.99,,,0.00,weatherlink.com 1.10,2013-05-18 12:47:00,
2013-05-18 09:02:00,-999.0,-99.9,30.24,North,-999,-999.0,-999.0,-999,-99.99,,,0.00,weatherlink.com 1.10,2013-05-18 13:02:00,
2013-05-18 09:17:00,-999.0,-99.9,30.23,North,-999,-999.0,-999.0,-999,-99.99,,,0.00,weatherlink.com 1.10,2013-05-18 13:17:00,
2013-05-18 09:32:00,-999.0,-99.9,30.23,North,-999,-999.0,-999.0,-999,-99.99,,,0.00,weatherlink.com 1.10,2013-05-18 13:32:00,
2013-05-18 09:47:00,-999.0,-99.9,30.23,North,-999,-999.0,-999.0,-999,-99.99,,,0.00,weatherlink.com 1.10,2013-05-18 13:47:00,
2013-05-18 10:02:00,-999.0,-99.9,30.23,North,-999,-999.0,-999.0,-999,-99.99,,,0.00,weatherlink.com 1.10,2013-05-18 14:02:00,
2013-05-18 10:17:00,-999.0,-99.9,30.23,North,-999,-999.0,-999.0,-999,-99.99,,,0.00,weatherlink.com 1.10,2013-05-18 14:17:00,
2013-05-18 10:32:00,-999.0,-99.9,30.23,North,-999,-999.0,-999.0,-999,-99.99,,,0.00,weatherlink.com 1.10,2013-05-18 14:32:00,
2013-05-18 10:47:00,-999.0,-99.9,30.22,North,-999,-999.0,-999.0,-999,-99.99,,,0.00,weatherlink.com 1.10,2013-05-18 14:47:00,
2013-05-18 11:03:00,-999.0,-99.9,30.22,North,-999,-999.0,-999.0,-999,-99.99,,,0.00,weatherlink.com 1.10,2013-05-18 15:03:00,
2013-05-18 11:17:00,-999.0,-99.9,30.22,North,-999,-999.0,-999.0,-999,-99.99,,,0.00,weatherlink.com 1.10,2013-05-18 15:17:00,
2013-05-18 11:32:00,-999.0,-99.9,30.21,North,-999,-999.0,-999.0,-999,-99.99,,,0.00,weatherlink.com 1.10,2013-05-18 15:32:00,
2013-05-18 11:47:00,-999.0,-99.9,30.21,North,-999,-999.0,-999.0,-999,-99.99,,,0.00,weatherlink.com 1.10,2013-05-18 15:47:00,
2013-05-18 12:02:00,66.2,48.0,30.21,East,79,5.0,-999.0,53,-99.99,,,0.00,weatherlink.com 1.10,2013-05-18 16:02:00,
2013-05-18 12:17:00,67.0,49.0,30.20,East,91,4.0,-999.0,52,-99.99,,,0.00,weatherlink.com 1.10,2013-05-18 16:17:00,
2013-05-18 12:32:00,67.3,48.0,30.19,East,90,1.0,-999.0,51,-99.99,,,0.00,weatherlink.com 1.10,2013-05-18 16:32:00,
2013-05-18 12:47:00,67.3,48.0,30.19,East,86,6.0,-999.0,51,-99.99,,,0.00,weatherlink.com 1.10,2013-05-18 16:47:00,
2013-05-18 13:02:00,67.8,48.0,30.19,NE,48,6.0,-999.0,50,-99.99,,,0.00,weatherlink.com 1.10,2013-05-18 17:02:00,
2013-05-18 13:17:00,69.6,49.0,30.18,ENE,68,4.0,-999.0,49,-99.99,,,0.00,weatherlink.com 1.10,2013-05-18 17:17:00,
2013-05-18 13:32:00,71.2,50.0,30.18,ESE,102,1.0,-999.0,48,-99.99,,,0.00,weatherlink.com 1.10,2013-05-18 17:32:00,
2013-05-18 13:47:00,71.0,50.0,30.18,East,90,0.0,-999.0,47,-99.99,,,0.00,weatherlink.com 1.10,2013-05-18 17:47:00,
2013-05-18 14:02:00,70.7,50.0,30.17,ESE,107,0.0,-999.0,48,-99.99,,,0.00,weatherlink.com 1.10,2013-05-18 18:02:00,
2013-05-18 14:17:00,70.3,51.0,30.16,NE,38,4.0,-999.0,50,-99.99,,,0.00,weatherlink.com 1.10,2013-05-18 18:17:00,
2013-05-18 14:32:00,70.3,51.0,30.16,ENE,65,3.0,-999.0,51,-99.99,,,0.00,weatherlink.com 1.10,2013-05-18 18:32:00,
2013-05-18 14:47:00,71.7,51.0,30.16,ENE,68,7.0,-999.0,49,-99.99,,,0.00,weatherlink.com 1.10,2013-05-18 18:47:00,
2013-05-18 15:02:00,71.7,50.0,30.15,East,93,4.0,-999.0,47,-99.99,,,0.00,weatherlink.com 1.10,2013-05-18 19:02:00,
2013-05-18 15:17:00,73.1,51.0,30.15,East,92,4.0,-999.0,46,-99.99,,,0.00,weatherlink.com 1.10,2013-05-18 19:17:00,
2013-05-18 15:32:00,73.4,51.0,30.14,ESE,103,3.0,-999.0,45,-99.99,,,0.00,weatherlink.com 1.10,2013-05-18 19:32:00,
2013-05-18 15:47:00,72.7,51.0,30.14,NE,51,3.0,-999.0,47,-99.99,,,0.00,weatherlink.com 1.10,2013-05-18 19:47:00,
2013-05-18 16:02:00,73.2,52.0,30.14,NE,51,3.0,-999.0,47,-99.99,,,0.00,weatherlink.com 1.10,2013-05-18 20:02:00,
2013-05-18 16:17:00,73.5,51.0,30.14,ENE,73,2.0,-999.0,46,-99.99,,,0.00,weatherlink.com 1.10,2013-05-18 20:17:00,
2013-05-18 16:32:00,73.6,52.0,30.13,NE,52,10.0,-999.0,47,-99.99,,,0.00,weatherlink.com 1.10,2013-05-18 20:32:00,
2013-05-18 16:47:00,73.4,52.0,30.13,ENE,71,3.0,-999.0,48,-99.99,,,0.00,weatherlink.com 1.10,2013-05-18 20:47:00,
2013-05-18 17:02:00,73.9,53.0,30.13,ENE,72,5.0,-999.0,48,-99.99,,,0.00,weatherlink.com 1.10,2013-05-18 21:02:00,
2013-05-18 17:17:00,73.5,52.0,30.13,SSE,155,2.0,-999.0,47,-99.99,,,0.00,weatherlink.com 1.10,2013-05-18 21:17:00,
2013-05-18 17:32:00,73.5,52.0,30.12,ENE,74,3.0,-999.0,47,-99.99,,,0.00,weatherlink.com 1.10,2013-05-18 21:32:00,
2013-05-18 17:47:00,72.9,51.0,30.12,NE,50,4.0,-999.0,47,-99.99,,,0.00,weatherlink.com 1.10,2013-05-18 21:47:00,
2013-05-18 18:02:00,73.3,52.0,30.12,NNE,26,2.0,-999.0,47,-99.99,,,0.00,weatherlink.com 1.10,2013-05-18 22:02:00,
2013-05-18 18:17:00,73.0,51.0,30.12,ENE,59,5.0,-999.0,47,-99.99,,,0.00,weatherlink.com 1.10,2013-05-18 22:17:00,
2013-05-18 18:32:00,71.9,51.0,30.12,East,90,0.0,-999.0,48,-99.99,,,0.00,weatherlink.com 1.10,2013-05-18 22:32:00,
2013-05-18 18:47:00,71.6,52.0,30.12,ENE,71,0.0,-999.0,50,-99.99,,,0.00,weatherlink.com 1.10,2013-05-18 22:47:00,
2013-05-18 19:02:00,71.3,52.0,30.12,ENE,65,1.0,-999.0,51,-99.99,,,0.00,weatherlink.com 1.10,2013-05-18 23:02:00,
2013-05-18 19:18:00,70.7,53.0,30.11,East,80,3.0,-999.0,53,-99.99,,,0.00,weatherlink.com 1.10,2013-05-18 23:18:00,
2013-05-18 19:32:00,70.1,53.0,30.12,NE,56,3.0,-999.0,54,-99.99,,,0.00,weatherlink.com 1.10,2013-05-18 23:32:00,
2013-05-18 19:47:00,68.0,51.0,30.12,ENE,78,5.0,-999.0,55,-99.99,,,0.00,weatherlink.com 1.10,2013-05-18 23:47:00,
2013-05-18 20:02:00,66.8,50.0,30.11,NE,52,3.0,-999.0,55,-99.99,,,0.00,weatherlink.com 1.10,2013-05-19 00:02:00,
2013-05-18 20:17:00,65.8,49.0,30.12,NE,42,5.0,-999.0,56,-99.99,,,0.00,weatherlink.com 1.10,2013-05-19 00:17:00,
2013-05-18 20:32:00,64.7,49.0,30.12,NE,44,4.0,-999.0,57,-99.99,,,0.00,weatherlink.com 1.10,2013-05-19 00:32:00,
2013-05-18 20:47:00,63.8,48.0,30.12,NE,45,2.0,-999.0,57,-99.99,,,0.00,weatherlink.com 1.10,2013-05-19 00:47:00,
2013-05-18 21:02:00,63.3,48.0,30.12,ENE,60,4.0,-999.0,58,-99.99,,,0.00,weatherlink.com 1.10,2013-05-19 01:02:00,
2013-05-18 21:17:00,63.1,48.0,30.12,ENE,63,3.0,-999.0,58,-99.99,,,0.00,weatherlink.com 1.10,2013-05-19 01:17:00,
2013-05-18 21:32:00,63.6,49.0,30.12,ENE,69,2.0,-999.0,59,-99.99,,,0.00,weatherlink.com 1.10,2013-05-19 01:32:00,
2013-05-18 21:48:00,63.5,49.0,30.12,ESE,115,0.0,-999.0,59,-99.99,,,0.00,weatherlink.com 1.10,2013-05-19 01:48:00,
2013-05-18 22:02:00,62.2,48.0,30.13,East,86,0.0,-999.0,60,-99.99,,,0.00,weatherlink.com 1.10,2013-05-19 02:02:00,
2013-05-18 22:17:00,61.3,48.0,30.13,SE,137,2.0,-999.0,61,-99.99,,,0.00,weatherlink.com 1.10,2013-05-19 02:17:00,
2013-05-18 22:32:00,-999.0,-99.9,30.13,North,-999,-999.0,-999.0,-999,-99.99,,,0.00,weatherlink.com 1.10,2013-05-19 02:32:00,
2013-05-18 22:48:00,-999.0,-99.9,30.12,North,-999,-999.0,-999.0,-999,-99.99,,,0.00,weatherlink.com 1.10,2013-05-19 02:48:00,
2013-05-18 23:03:00,-999.0,-99.9,30.12,North,-999,-999.0,-999.0,-999,-99.99,,,0.00,weatherlink.com 1.10,2013-05-19 03:03:00,
2013-05-18 23:18:00,-999.0,-99.9,30.12,North,-999,-999.0,-999.0,-999,-99.99,,,0.00,weatherlink.com 1.10,2013-05-19 03:18:00,
2013-05-18 23:33:00,-999.0,-99.9,30.12,North,-999,-999.0,-999.0,-999,-99.99,,,0.00,weatherlink.com 1.10,2013-05-19 03:33:00,
2013-05-18 23:47:00,-999.0,-99.9,30.12,North,-999,-999.0,-999.0,-999,-99.99,,,0.00,weatherlink.com 1.10,2013-05-19 03:47:00,